| time (UTC) | temp C | wind direction | speed KPH | gust KPH | rain 1hr cm | rain 24hr cm | rain mn cm | humidity % | barometer mb |
| 20260510064550 | 13 | 294 | 19.3 | 30.6 | 0.00 | 0.00 | 0.00 | 83 | 1014.7 |
| 20260510063046 | 13 | 320 | 14.5 | 25.7 | 0.00 | 0.00 | 0.00 | 85 | 1014.9 |
| 20260510061543 | 12 | 304 | 17.7 | 27.4 | 0.00 | 0.00 | 0.00 | 87 | 1014.9 |
| 20260510060050 | 11 | 313 | 16.1 | 24.1 | 0.00 | 0.00 | 0.00 | 89 | 1015.0 |
| 20260510054539 | 11 | 325 | 19.3 | 27.4 | 0.00 | 0.00 | 0.00 | 90 | 1014.7 |
| 20260510053037 | 11 | 315 | 16.1 | 24.1 | 0.00 | 0.00 | 0.00 | 92 | 1014.7 |
| 20260510051543 | 11 | 296 | 14.5 | 22.5 | 0.00 | 0.00 | 0.00 | 93 | 1014.7 |
| 20260510050035 | 11 | 360 | 11.3 | 17.7 | 0.00 | 0.00 | 0.00 | 93 | 1014.8 |
| 20260510044537 | 10 | 360 | 11.3 | 17.7 | 0.00 | 0.00 | 0.00 | 93 | 1014.8 |
| 20260510043042 | 10 | 360 | 11.3 | 17.7 | 0.00 | 0.00 | 0.00 | 93 | 1014.8 |
| 20260510041534 | 10 | 289 | 14.5 | 20.9 | 0.00 | 0.00 | 0.00 | 93 | 1014.7 |
| 20260510040032 | 10 | 312 | 14.5 | 19.3 | 0.00 | 0.00 | 0.00 | 93 | 1014.5 |
| 20260510034529 | 10 | 284 | 12.9 | 20.9 | 0.00 | 0.00 | 0.00 | 93 | 1014.5 |
| 20260510033025 | 10 | 257 | 12.9 | 24.1 | 0.00 | 0.00 | 0.00 | 93 | 1014.5 |
| 20260510031528 | 10 | 289 | 11.3 | 17.7 | 0.00 | 0.00 | 0.00 | 93 | 1014.9 |
| 20260510030021 | 10 | 360 | 11.3 | 17.7 | 0.00 | 0.00 | 0.00 | 93 | 1014.8 |
| 20260510023033 | 11 | 290 | 6.4 | 12.9 | 0.00 | 0.00 | 0.00 | 93 | 1014.8 |
| 20260510021515 | 11 | 323 | 8.0 | 14.5 | 0.00 | 0.00 | 0.00 | 93 | 1014.9 |
| 20260510020013 | 11 | 305 | 8.0 | 14.5 | 0.00 | 0.00 | 0.00 | 92 | 1014.9 |
| 20260510014513 | 10 | 290 | 8.0 | 12.9 | 0.00 | 0.00 | 0.00 | 91 | 1015.0 |
| 20260510013013 | 10 | 310 | 6.4 | 12.9 | 0.00 | 0.00 | 0.00 | 91 | 1015.1 |
| 20260510011513 | 10 | 307 | 8.0 | 12.9 | 0.00 | 0.00 | 0.00 | 90 | 1015.1 |
| 20260510010012 | 10 | 303 | 6.4 | 12.9 | 0.00 | 0.00 | 0.00 | 89 | 1015.2 |
| 20260510004505 | 10 | 360 | 6.4 | 8.0 | 0.00 | 0.00 | 0.00 | 88 | 1015.3 |
| 20260510003005 | 11 | 317 | 4.8 | 8.0 | 0.00 | 0.00 | 0.00 | 88 | 1015.4 |
| 20260510001500 | 11 | 302 | 4.8 | 9.7 | 0.00 | 0.00 | 0.00 | 87 | 1015.6 |
| 20260510000100 | 11 | 309 | 6.4 | 9.7 | 0.00 | 0.00 | 0.00 | 87 | 1015.5 |
| 20260509234608 | 11 | 317 | 8.0 | 12.9 | 0.00 | 0.00 | 0.00 | 86 | 1015.7 |
| 20260509233102 | 11 | 318 | 8.0 | 12.9 | 0.00 | 0.00 | 0.00 | 86 | 1015.8 |
| 20260509231602 | 11 | 301 | 8.0 | 12.9 | 0.00 | 0.00 | 0.00 | 86 | 1015.9 |
| 20260509230053 | 11 | 313 | 6.4 | 8.0 | 0.00 | 0.00 | 0.00 | 85 | 1015.8 |
| 20260509224549 | 11 | 360 | 4.8 | 9.7 | 0.00 | 0.00 | 0.00 | 85 | 1015.9 |
| 20260509223047 | 11 | 318 | 8.0 | 16.1 | 0.00 | 0.00 | 0.00 | 85 | 1015.8 |
| 20260509221544 | 11 | 316 | 8.0 | 12.9 | 0.00 | 0.00 | 0.00 | 85 | 1015.7 |
| 20260509220045 | 11 | 314 | 6.4 | 12.9 | 0.00 | 0.00 | 0.00 | 85 | 1015.7 |
| 20260509214542 | 11 | 299 | 6.4 | 11.3 | 0.00 | 0.00 | 0.00 | 85 | 1015.8 |
| 20260509213057 | 11 | 304 | 6.4 | 11.3 | 0.00 | 0.00 | 0.00 | 85 | 1016.0 |
| 20260509211606 | 12 | 302 | 6.4 | 16.1 | 0.00 | 0.00 | 0.00 | 84 | 1015.7 |
| 20260509210041 | 12 | 302 | 11.3 | 16.1 | 0.00 | 0.00 | 0.00 | 83 | 1015.7 |
| 20260509204553 | 12 | 286 | 9.7 | 16.1 | 0.00 | 0.00 | 0.00 | 81 | 1015.5 |
| 20260509203044 | 12 | 302 | 6.4 | 12.9 | 0.00 | 0.00 | 0.00 | 79 | 1015.4 |
| 20260509201538 | 12 | 293 | 8.0 | 14.5 | 0.00 | 0.00 | 0.00 | 78 | 1015.4 |
| 20260509200038 | 12 | 313 | 4.8 | 12.9 | 0.00 | 0.00 | 0.00 | 77 | 1015.3 |
| 20260509194539 | 13 | 309 | 8.0 | 16.1 | 0.00 | 0.00 | 0.00 | 75 | 1015.2 |
| 20260509193036 | 13 | 308 | 8.0 | 14.5 | 0.00 | 0.00 | 0.00 | 74 | 1015.3 |
| 20260509191536 | 13 | 292 | 8.0 | 14.5 | 0.00 | 0.00 | 0.00 | 74 | 1015.2 |
| 20260509190045 | 14 | 309 | 9.7 | 17.7 | 0.00 | 0.00 | 0.00 | 73 | 1015.1 |
| 20260509184535 | 15 | 298 | 12.9 | 20.9 | 0.00 | 0.00 | 0.00 | 73 | 1015.3 |
| 20260509183037 | 15 | 290 | 12.9 | 22.5 | 0.00 | 0.00 | 0.00 | 71 | 1015.2 |
| 20260509181532 | 16 | 301 | 12.9 | 22.5 | 0.00 | 0.00 | 0.00 | 69 | 1015.4 |
| 20260509180031 | 16 | 296 | 17.7 | 30.6 | 0.00 | 0.00 | 0.00 | 68 | 1015.5 |
| 20260509174534 | 16 | 292 | 19.3 | 30.6 | 0.00 | 0.00 | 0.00 | 67 | 1015.3 |
| 20260509173031 | 17 | 254 | 17.7 | 29.0 | 0.00 | 0.00 | 0.00 | 67 | 1015.2 |
| 20260509171529 | 17 | 310 | 17.7 | 27.4 | 0.00 | 0.00 | 0.00 | 68 | 1015.3 |
| 20260509170031 | 17 | 262 | 17.7 | 25.7 | 0.00 | 0.00 | 0.00 | 67 | 1015.3 |
| 20260509164529 | 18 | 318 | 17.7 | 27.4 | 0.00 | 0.00 | 0.00 | 66 | 1015.2 |
| 20260509163035 | 18 | 286 | 16.1 | 25.7 | 0.00 | 0.00 | 0.00 | 65 | 1015.2 |
| 20260509161527 | 18 | 296 | 19.3 | 29.0 | 0.00 | 0.00 | 0.00 | 65 | 1015.5 |
| 20260509160030 | 18 | 300 | 20.9 | 30.6 | 0.00 | 0.00 | 0.00 | 65 | 1015.4 |
| 20260509154525 | 18 | 293 | 24.1 | 30.6 | 0.00 | 0.00 | 0.00 | 64 | 1015.5 |
| 20260509153025 | 19 | 274 | 12.9 | 29.0 | 0.00 | 0.00 | 0.00 | 64 | 1015.4 |
| 20260509151523 | 20 | 279 | 16.1 | 30.6 | 0.00 | 0.00 | 0.00 | 64 | 1015.5 |
| 20260509150023 | 20 | 271 | 20.9 | 29.0 | 0.00 | 0.00 | 0.00 | 64 | 1015.3 |
| 20260509144522 | 20 | 284 | 22.5 | 33.8 | 0.00 | 0.00 | 0.00 | 62 | 1015.4 |
| 20260509143028 | 20 | 309 | 19.3 | 35.4 | 0.00 | 0.00 | 0.00 | 63 | 1015.3 |
| 20260509141524 | 20 | 277 | 16.1 | 27.4 | 0.00 | 0.00 | 0.00 | 62 | 1015.4 |
| 20260509140019 | 20 | 277 | 11.3 | 20.9 | 0.00 | 0.00 | 0.00 | 60 | 1015.4 |
| 20260509134516 | 20 | 328 | 8.0 | 20.9 | 0.00 | 0.00 | 0.00 | 61 | 1015.4 |
| 20260509133013 | 20 | 300 | 6.4 | 16.1 | 0.00 | 0.00 | 0.00 | 61 | 1015.6 |
| 20260509131513 | 20 | 31 | 6.4 | 24.1 | 0.00 | 0.00 | 0.00 | 60 | 1015.7 |
| 20260509130015 | 20 | 333 | 12.9 | 19.3 | 0.00 | 0.00 | 0.00 | 61 | 1015.8 |
| 20260509124507 | 20 | 360 | 11.3 | 22.5 | 0.00 | 0.00 | 0.00 | 62 | 1016.0 |
| 20260509123005 | 20 | 309 | 8.0 | 20.9 | 0.00 | 0.00 | 0.00 | 61 | 1016.2 |
| 20260509121504 | 20 | 311 | 6.4 | 22.5 | 0.00 | 0.00 | 0.00 | 61 | 1016.3 |
| 20260509120002 | 20 | 13 | 6.4 | 20.9 | 0.00 | 0.00 | 0.00 | 62 | 1016.3 |
| 20260509114602 | 19 | 22 | 12.9 | 20.9 | 0.00 | 0.00 | 0.00 | 62 | 1016.4 |
| 20260509113057 | 20 | 325 | 17.7 | 27.4 | 0.00 | 0.00 | 0.00 | 63 | 1016.5 |
| 20260509111557 | 20 | 335 | 17.7 | 25.7 | 0.00 | 0.00 | 0.00 | 62 | 1016.7 |
| 20260509110057 | 19 | 13 | 16.1 | 24.1 | 0.00 | 0.00 | 0.00 | 62 | 1016.8 |
| 20260509104551 | 20 | 326 | 16.1 | 22.5 | 0.00 | 0.00 | 0.00 | 62 | 1016.9 |
| 20260509103047 | 19 | 313 | 14.5 | 24.1 | 0.00 | 0.00 | 0.00 | 64 | 1017.0 |
| 20260509101546 | 19 | 309 | 12.9 | 22.5 | 0.00 | 0.00 | 0.00 | 62 | 1016.9 |
| 20260509100048 | 19 | 335 | 16.1 | 24.1 | 0.00 | 0.00 | 0.00 | 63 | 1017.0 |
| 20260509094541 | 18 | 332 | 11.3 | 20.9 | 0.00 | 0.00 | 0.00 | 65 | 1017.0 |
| 20260509093036 | 18 | 360 | 16.1 | 24.1 | 0.00 | 0.00 | 0.00 | 64 | 1017.1 |
| 20260509091535 | 18 | 329 | 16.1 | 27.4 | 0.00 | 0.00 | 0.00 | 67 | 1017.4 |
| 20260509090029 | 17 | 324 | 14.5 | 20.9 | 0.00 | 0.00 | 0.00 | 68 | 1017.4 |
| 20260509084528 | 17 | 337 | 16.1 | 22.5 | 0.00 | 0.00 | 0.00 | 71 | 1017.4 |
| 20260509083019 | 17 | 355 | 16.1 | 20.9 | 0.00 | 0.00 | 0.00 | 72 | 1017.2 |
| 20260509081514 | 17 | 348 | 12.9 | 20.9 | 0.00 | 0.00 | 0.00 | 73 | 1017.3 |
| 20260509080021 | 16 | 9 | 14.5 | 20.9 | 0.00 | 0.00 | 0.00 | 75 | 1017.3 |
| 20260509074507 | 16 | 344 | 8.0 | 16.1 | 0.00 | 0.00 | 0.00 | 77 | 1017.4 |
| 20260509073002 | 15 | 360 | 12.9 | 16.1 | 0.00 | 0.00 | 0.00 | 78 | 1017.3 |
| 20260509071557 | 15 | 360 | 6.4 | 14.5 | 0.00 | 0.00 | 0.00 | 81 | 1017.4 |
| 20260509070054 | 14 | 360 | 8.0 | 16.1 | 0.00 | 0.00 | 0.00 | 83 | 1017.5 |